Regional Weather Roundup
Issued by NWS

Home | Current Version | Previous Version | Text Only | Print | Product List | Glossary Off
Versions: 1 2 3 4 5 6 7 8 9 10 11 12 13 14 15 16 17 18 19 20 21 22 23 24 25 26 27 28 29 30 31 32 33 34 35 36 37 38 39 40 41 42 43 44 45 46 47 48 49 50

000
ASUS45 KPSR 260710
RWRAZ

ARIZONA HOURLY REGIONAL WEATHER ROUNDUP
NATIONAL WEATHER SERVICE PHOENIX AZ
1200 AM MST SUN FEB 26 2017

NOTE: FAIR INDICATES FEW OR NO CLOUDS BELOW 12,000 FEET WITH NO
SIGNIFICANT WEATHER AND/OR OBSTRUCTIONS TO VISIBILITY.

AZZ001>003-036-260800-
NORTHWEST ARIZONA

CITY           SKY/WX    TMP DP  RH WIND       PRES   REMARKS
BULLHEAD CITY  MOCLDY    54  32  43 CALM      29.90F
KINGMAN        CLOUDY    44  13  28 SE10      29.92F
$$

AZZ004>008-015-016-018-260800-
NORTH CENTRAL ARIZONA

CITY           SKY/WX    TMP DP  RH WIND       PRES   REMARKS
GRAND CANYON   CLOUDY    30  18  60 SW10G21   29.94S WCI  21
WILLIAMS       CLOUDY    30  16  55 W5        29.95S WCI  25
PRESCOTT       CLOUDY    39  22  50 SW5       29.97F
FLAGSTAFF      LGT SNOW  26  21  81 W7        29.95F WCI  18
PAYSON         CLOUDY    39  19  45 CALM      29.98F
PAGE           CLEAR     40   8  26 W8        29.90F WCI  34
$$

AZZ009>014-017-260800-
NORTHEAST ARIZONA

CITY           SKY/WX    TMP DP  RH WIND       PRES   REMARKS
WINSLOW        CLOUDY    39  16  39 SW6       29.94F WCI  35
SAINT JOHNS    CLOUDY    41   4  21 W15       29.92S
WINDOW ROCK    CLOUDY    33  18  53 SW15G26   29.90F WCI  23
SHOW LOW       PTCLDY    32  10  40 S8        29.95F WCI  25
$$

AZZ023-260800-
GREATER PHOENIX AREA

CITY           SKY/WX    TMP DP  RH WIND       PRES   REMARKS
PHOENIX        CLOUDY    57  33  40 E3        29.93S
BUCKEYE          N/A     50  43  76 E3        29.94F
LUKE AFB       CLOUDY    53  39  58 NW5       29.93S
DEER VALLEY    CLOUDY    52  33  48 CALM      29.94S
SCOTTSDALE     MOCLDY    55  30  38 CALM      29.95F
MESA-GATEWAY   PTCLDY    48  37  66 VRB3      29.95F
$$

AZZ027-028-260800-
SOUTHWEST MARICOPA COUNTY AND PINAL COUNTY

CITY           SKY/WX    TMP DP  RH WIND       PRES   REMARKS
CASA GRANDE    NOT AVBL
$$

AZZ503-504-507>509-260800-
SOUTHEAST ARIZONA

CITY           SKY/WX    TMP DP  RH WIND       PRES   REMARKS
TUCSON         CLOUDY    50  16  25 SE6       29.98F
DAVIS-MONTHAN  MOCLDY    48  19  31 SE6       29.96F
NOGALES        MOCLDY    45  16  31 CALM      30.00F
SIERRA VISTA   PTCLDY    50   2  14 SW12      30.00F
DOUGLAS        MOCLDY    42  12  29 E6        29.99F
SAFFORD        CLEAR     41  13  31 E3        29.94S
$$

AZZ020-021-025-026-031-260800-
SOUTHWEST ARIZONA

CITY           SKY/WX    TMP DP  RH WIND       PRES   REMARKS
YUMA           CLOUDY    59  36  42 CALM      29.92F
$$

CAZ031-033-041-043-047-048-061-260800-
SOUTHERN CALIFORNIA

CITY           SKY/WX    TMP DP  RH WIND       PRES   REMARKS
DOWNTOWN L.A.  CLEAR     53  42  66 CALM      30.01S
L.A. AIRPORT   PTCLDY    52  43  71 SW8       30.02S
SAN DIEGO      CLOUDY    56  40  55 W9        30.06S
BURBANK        PTCLDY    49  39  68 SE3       29.99F
ONTARIO        MOCLDY    47  42  83 W3        30.01S
RIVERSIDE      PTCLDY    47  44  90 CALM      30.02S
PALM SPRINGS   PTCLDY    56  34  43 SW3       29.92F
EL CENTRO NAS  MOCLDY    60  27  28 W20       29.93S
IMPERIAL         N/A     59  33  37 W12       29.91F
BLYTHE         CLOUDY    59  32  36 S7        29.90F
NEEDLES        CLOUDY    59  29  31 SW3       29.90F
$$

NVZ020-UTZ003-260800-
SOUTHERN NEVADA-UTAH

CITY           SKY/WX    TMP DP  RH WIND       PRES   REMARKS
LAS VEGAS      PTCLDY    44  22  41 W6        29.91F
SALT LAKE CITY PTCLDY    24  15  68 SE6       29.99S WCI  17
$$

NMZ009-TXZ055-260800-
NEW MEXICO-WEST TEXAS

CITY           SKY/WX    TMP DP  RH WIND       PRES   REMARKS
ALBUQUERQUE    MOCLDY    40   5  23 W5        29.89F
EL PASO        CLEAR     53   1  12 N3        29.94S
$$


........................KEY........................
SKY/WX - SKY CONDITION/WEATHER
TMP    - TEMPERATURE IN FAHRENHEIT
DP     - DEW POINT IN FAHRENHEIT
RH     - RELATIVE HUMIDITY IN PERCENT
WIND   - DIRECTION AND SPEED IN MILES PER HOUR (MPH)
VRB    - VARIABLE WIND DIRECTION
PRES   - MEAN SEA LEVEL PRESSURE IN INCHES OF MERCURY
         F - FALLING PRESSURE   R - RISING PRESSURE
         S - STEADY PRESSURE
VSB    - VISIBILITY IN MILES
HX     - HEAT INDEX IN FAHRENHEIT
WCI    - WIND CHILL INDEX IN FAHRENHEIT
TC     - TEMPERATURE IN CELSIUS WHICH IS ALSO KNOWN AS
         TEMPERATURE IN CENTIGRADE
AFB    - AIR FORCE BASE
         LUKE AFB IS LUKE AIR FORCE BASE
         DAVIS-MONTHAN IS DAVIS-MONTHAN AIR FORCE BASE
NAS    - NAVAL AIR STATION
         EL CENTRO NAS IS EL CENTRO NAVAL AIR STATION
N/A    - NOT AVAILABLE




USA.gov is the U.S. government's official web portal to all federal, state and local government web resources and services.